Current Version              Previous Version:    01  02  03  04  05  06  07  08  09  10  11  12  13  14  15  16  17  18  19  20  21  22  23  24  25  26  27  28  29  30  
   31  32  33  34  35  36  37  38  39  40  41  42  43  44  45  46  47  48  49  50  51  52  53  54  55  56  57  58  59  60  

[Printable]
701
ASUS44 KFWD 230901
RWRTX
NORTH TEXAS HOURLY WEATHER ROUNDUP
NATIONAL WEATHER SERVICE FORT WORTH TX
400 AM CDT WED APR 23 2014

NOTE: "FAIR" INDICATES FEW OR NO CLOUDS BELOW 12,000 FEET WITH NO
SIGNIFICANT WEATHER AND/OR OBSTRUCTIONS TO VISIBILITY.

TXZ118-119-231000-
DALLAS/FORT WORTH METROPLEX

CITY           SKY/WX    TMP DP  RH WIND       PRES   REMARKS
DFW AIRPORT    CLEAR     63  57  81 SE3       29.91F
DALLAS LOVE    CLEAR     63  56  78 CALM      29.92S
FTW MEACHAM    CLEAR     62  58  86 CALM      29.92S
DAL-EXECUTIVE  CLEAR     62  57  83 CALM      29.92S
FTW-ALLIANCE   PTCLDY    60  56  86 CALM      29.91F
FTW-NAS-JRB    CLEAR     64  55  72 CALM      29.96S
ARLINGTON      CLEAR     55  53  93 CALM      29.92S
GRAND PRAIRIE  CLEAR     63  55  77 CALM      29.95S
MESQUITE       CLEAR     57  56  94 CALM      29.93S
LANCASTER      CLEAR     57  54  92 CALM      29.94S
$$

TXZ091>094-102>105-117-120-121-131>134-231000-
NORTH CENTRAL TEXAS

CITY           SKY/WX    TMP DP  RH WIND       PRES   REMARKS
BRIDGEPORT     CLEAR     54  54  99 CALM      29.94S
DENTON         CLEAR     56  55  97 CALM      29.92F
MCKINNEY       CLEAR     54  53  97 CALM      29.92F
GREENVILLE     CLEAR     55  54  94 CALM      29.93S
ROCKWALL       CLEAR     62  53  71 E6        29.92S
TERRELL        CLEAR     59  57  93 CALM      29.93S
WAXAHACHIE     CLEAR     60  57  89 CALM      29.94S
CLEBURNE       CLEAR     59  57  94 CALM      29.95S
GRANBURY       CLEAR     56  54  91 CALM      29.93F
$$

TXZ083>090-098>101-113>116-127>130-139>142-154-155-231000-
WESTERN NORTH TEXAS

CITY           SKY/WX    TMP DP  RH WIND       PRES   REMARKS
WICHITA FALLS  CLEAR     60  53  77 S10       29.89S
ABILENE        CLEAR     64  52  64 SE15      29.90F
ABILENE-DYESS  CLEAR     62  51  69 S10       29.89F
MINERAL WELLS  CLEAR     59  55  87 SE7       29.91F
STEPHENVILLE   CLEAR     59  53  82 CALM      29.96S
COMANCHE       CLEAR     60  55  82 S5        29.94S
BROWNWOOD      PTCLDY    52  50  93 CALM      29.93F
$$

TXZ143>147-156>162-174-175-231000-
CENTRAL TEXAS

CITY           SKY/WX    TMP DP  RH WIND       PRES   REMARKS
WACO           CLEAR     54  54 100 CALM      29.93S
WACO-MCGREGOR  CLEAR     59  52  77 S3        29.94S
CORSICANA      CLEAR     62  59  90 S3        29.94S
MEXIA          CLEAR     63  58  82 CALM      29.92S
TEMPLE         CLEAR     61  54  77 CALM      29.96S
KILLEEN        CLEAR     64  57  77 SE3       29.92F
KILLEEN-SKYLRK CLEAR    N/A N/A N/A CALM      29.91S
HAMILTON       CLEAR     59  54  83 SE5       29.95S
LAMPASAS       CLEAR     61  57  87 CALM      29.92F
$$

TXZ095>097-106>112-122>126-135>138-148>153-164>167-231000-
EAST TEXAS

CITY           SKY/WX    TMP DP  RH WIND       PRES   REMARKS
PARIS          CLEAR     59  46  63 E6        29.93S
MINEOLA        CLEAR     57  57 100 CALM      29.94S FOG
TYLER          CLEAR     62  56  80 SE3       29.93S
LONGVIEW       CLEAR     58  55  90 CALM      29.93S
ATHENS         CLEAR     55  54  94 CALM      29.93S
PALESTINE      CLEAR     59  56  88 CALM      29.95S
NACOGDOCHES    CLEAR     54  50  87 CALM      29.94S
LUFKIN         CLEAR     61  57  87 CALM      29.93F
$$

SUPPLEMENTAL OBSERVATIONS (CENTRAL)

CITY           SKY/WX    TMP DP  RH WIND       PRES   REMARKS
$$

SUPPLEMENTAL OBSERVATIONS (WEST)

CITY           SKY/WX    TMP DP  RH WIND       PRES   REMARKS
$$

SUPPLEMENTAL OBSERVATIONS (EAST)

CITY           SKY/WX    TMP DP  RH WIND       PRES   REMARKS
$$

SUPPLEMENTAL OBSERVATIONS ARE A COLLECTION OF AUTOMATED INSTRUMENTS
THAT ARE MAINTAINED BY A VARIETY OF FEDERAL AND STATE AGENCIES.
CERTAIN ELEMENTS...SUCH AS HUMIDITY VALUES AND SUSTAINED WIND
SPEEDS...MAY BE APPROXIMATED.